SUD1A KPHL-KEYW

Flight info

Callsign SUD1A
Flight time 2h 35m
Altitude 34000
Route OOD TEBEE HAYDO TRPOD Q409 CRPLR EARZZ Q131 WAALT Y289 BAHAA AR17 HIBAC EBAYY FNTSY1
Aircraft A320/M-SDFGHILORVWY/S

Departure

Time 2026-05-04 14:40
Airport Philadelphia International Airport (KPHL)

Arrival

Time 2026-05-04 17:15
Airport Key West International Airport (KEYW)
Time Latitude Longitude Altitude Speed Heading
2026-05-04 14:27 39.87354 -75.24381 28 ft 0 kts
2026-05-04 14:33 39.87344 -75.24382 31 ft 3 kts
2026-05-04 14:33 39.87331 -75.24382 31 ft 3 kts
2026-05-04 14:33 39.87306 -75.24384 28 ft 3 kts 21°
2026-05-04 14:33 39.87295 -75.24391 29 ft 3 kts 46°
2026-05-04 14:34 39.87285 -75.24410 28 ft 2 kts 74°
2026-05-04 14:34 39.87284 -75.24415 31 ft 0 kts 75°
2026-05-04 14:35 39.87284 -75.24414 31 ft 0 kts 75°
2026-05-04 14:35 39.87297 -75.24352 28 ft 13 kts 75°
2026-05-04 14:36 39.87315 -75.24222 25 ft 15 kts 108°
2026-05-04 14:36 39.87277 -75.24088 27 ft 20 kts 76°
2026-05-04 14:36 39.87318 -75.23885 29 ft 26 kts 76°
2026-05-04 14:36 39.87362 -75.23664 27 ft 24 kts 75°
2026-05-04 14:37 39.87402 -75.23464 25 ft 22 kts 75°
2026-05-04 14:37 39.87439 -75.23282 25 ft 20 kts 75°
2026-05-04 14:37 39.87471 -75.23119 25 ft 18 kts 76°
2026-05-04 14:37 39.87501 -75.22972 25 ft 16 kts 75°
2026-05-04 14:38 39.87527 -75.22841 25 ft 14 kts 76°
2026-05-04 14:38 39.87551 -75.22720 26 ft 15 kts 75°
2026-05-04 14:38 39.87581 -75.22570 27 ft 19 kts 75°
2026-05-04 14:38 39.87583 -75.22387 28 ft 22 kts 111°
2026-05-04 14:39 39.87505 -75.22387 25 ft 13 kts 268°
2026-05-04 14:39 39.87460 -75.22605 29 ft 51 kts 255°
2026-05-04 14:39 39.87313 -75.23339 26 ft 113 kts 255°
2026-05-04 14:40 39.86793 -75.25994 551 ft 165 kts 254°
2026-05-04 14:40 39.86507 -75.27430 1332 ft 163 kts 252°
2026-05-04 14:40 39.86127 -75.28787 1972 ft 165 kts 235°
2026-05-04 14:40 39.85183 -75.29776 2224 ft 190 kts 204°
2026-05-04 14:41 39.83769 -75.30015 2455 ft 221 kts 185°
2026-05-04 14:41 39.82150 -75.30037 2788 ft 243 kts 185°
2026-05-04 14:41 39.78676 -75.30072 4299 ft 255 kts 185°
2026-05-04 14:42 39.75080 -75.30107 5911 ft 262 kts 185°
2026-05-04 14:42 39.73249 -75.30135 6685 ft 265 kts 185°
2026-05-04 14:42 39.71393 -75.30170 7409 ft 269 kts 185°
2026-05-04 14:43 39.69497 -75.30207 8110 ft 275 kts 185°
2026-05-04 14:43 39.67567 -75.30245 8826 ft 280 kts 185°
2026-05-04 14:43 39.65604 -75.30283 9526 ft 285 kts 185°
2026-05-04 14:43 39.63601 -75.30336 10178 ft 290 kts 189°
2026-05-04 14:44 39.61558 -75.30674 10512 ft 307 kts 192°
2026-05-04 14:44 39.59366 -75.31081 10673 ft 330 kts 192°
2026-05-04 14:44 39.57025 -75.31520 10881 ft 348 kts 192°
2026-05-04 14:44 39.54597 -75.31968 11413 ft 355 kts 192°
2026-05-04 14:45 39.52133 -75.32412 12043 ft 359 kts 192°
2026-05-04 14:45 39.49641 -75.32855 12670 ft 363 kts 192°
2026-05-04 14:45 39.47125 -75.33301 13306 ft 367 kts 192°
2026-05-04 14:45 39.44585 -75.33755 13923 ft 371 kts 192°
2026-05-04 14:46 39.42017 -75.34218 14467 ft 374 kts 192°
2026-05-04 14:46 39.39428 -75.34686 15017 ft 377 kts 192°
2026-05-04 14:46 39.36817 -75.35158 15569 ft 381 kts 192°
2026-05-04 14:46 39.34179 -75.35636 16103 ft 384 kts 192°
2026-05-04 14:47 39.31522 -75.36114 16622 ft 388 kts 192°
2026-05-04 14:47 39.28837 -75.36592 17139 ft 391 kts 192°
2026-05-04 14:47 39.26126 -75.37076 17663 ft 395 kts 192°
2026-05-04 14:47 39.23390 -75.37566 18186 ft 399 kts 192°
2026-05-04 14:48 39.20630 -75.38064 18660 ft 402 kts 192°
2026-05-04 14:48 39.17848 -75.38568 19136 ft 405 kts 192°
2026-05-04 14:48 39.15052 -75.39073 19612 ft 407 kts 192°
2026-05-04 14:48 39.12235 -75.39576 20086 ft 410 kts 192°
2026-05-04 14:49 39.09400 -75.40079 20537 ft 413 kts 192°
2026-05-04 14:49 39.06546 -75.40582 20993 ft 415 kts 192°
2026-05-04 14:49 39.03678 -75.41092 21436 ft 417 kts 192°
2026-05-04 14:49 39.00794 -75.41606 21871 ft 420 kts 192°
2026-05-04 14:50 38.97896 -75.42122 22295 ft 422 kts 192°
2026-05-04 14:50 38.94978 -75.42638 22709 ft 424 kts 192°
2026-05-04 14:50 38.92045 -75.43156 23101 ft 427 kts 192°
2026-05-04 14:50 38.89090 -75.43680 23475 ft 430 kts 192°
2026-05-04 14:51 38.86118 -75.44207 23827 ft 432 kts 193°
2026-05-04 14:51 38.83135 -75.44736 24157 ft 433 kts 193°
2026-05-04 14:51 38.80141 -75.45268 24476 ft 435 kts 193°
2026-05-04 14:51 38.77138 -75.45801 24786 ft 437 kts 193°
2026-05-04 14:52 38.74157 -75.46328 25089 ft 439 kts 193°
2026-05-04 14:52 38.71129 -75.46860 25385 ft 441 kts 193°
2026-05-04 14:52 38.68041 -75.47404 25680 ft 443 kts 193°
2026-05-04 14:52 38.65026 -75.47936 25972 ft 444 kts 193°
2026-05-04 14:53 38.61923 -75.48480 26274 ft 445 kts 193°
2026-05-04 14:53 38.58887 -75.49010 26554 ft 447 kts 193°
2026-05-04 14:53 38.55801 -75.49547 26830 ft 448 kts 193°
2026-05-04 14:53 38.52704 -75.50089 27097 ft 450 kts 193°
2026-05-04 14:54 38.49599 -75.50637 27351 ft 452 kts 194°
2026-05-04 14:54 38.46479 -75.51187 27604 ft 453 kts 194°
2026-05-04 14:54 38.43349 -75.51736 27822 ft 454 kts 194°
2026-05-04 14:54 38.40214 -75.52285 28095 ft 455 kts 194°
2026-05-04 14:55 38.37054 -75.52951 28334 ft 452 kts 200°
2026-05-04 14:55 38.34113 -75.54100 28551 ft 446 kts 208°
2026-05-04 14:55 38.31292 -75.55794 28764 ft 440 kts 216°
2026-05-04 14:55 38.28732 -75.57891 28964 ft 437 kts 220°
2026-05-04 14:56 38.26224 -75.60085 29181 ft 438 kts 220°
2026-05-04 14:56 38.23715 -75.62271 29471 ft 437 kts 220°
2026-05-04 14:56 38.21212 -75.64448 29763 ft 435 kts 220°
2026-05-04 14:56 38.18720 -75.66614 30091 ft 433 kts 220°
2026-05-04 14:57 38.16236 -75.68770 30344 ft 432 kts 220°
2026-05-04 14:57 38.13753 -75.70928 30575 ft 432 kts 220°
2026-05-04 14:57 38.11274 -75.73075 30800 ft 432 kts 220°
2026-05-04 14:57 38.08792 -75.75221 31022 ft 431 kts 220°
2026-05-04 14:58 38.06313 -75.77365 31242 ft 431 kts 220°
2026-05-04 14:58 38.03840 -75.79510 31455 ft 431 kts 221°
2026-05-04 14:58 38.01399 -75.81626 31639 ft 431 kts 221°
2026-05-04 14:58 37.98892 -75.83793 31862 ft 430 kts 220°
2026-05-04 14:59 37.96416 -75.85928 32083 ft 430 kts 220°
2026-05-04 14:59 37.93973 -75.88035 32294 ft 430 kts 220°
2026-05-04 14:59 37.89027 -75.92301 32720 ft 430 kts 220°
2026-05-04 15:00 37.86551 -75.94433 32915 ft 430 kts 220°
2026-05-04 15:00 37.84077 -75.96560 33123 ft 430 kts 220°
2026-05-04 15:00 37.81603 -75.98686 33328 ft 430 kts 220°
2026-05-04 15:01 37.76652 -76.02934 33727 ft 430 kts 220°
2026-05-04 15:01 37.74145 -76.05079 33939 ft 430 kts 220°
2026-05-04 15:01 37.71702 -76.07170 34050 ft 430 kts 220°
2026-05-04 15:01 37.69226 -76.09289 34074 ft 430 kts 220°
2026-05-04 15:02 37.64268 -76.13525 34075 ft 430 kts 220°
2026-05-04 15:02 37.59031 -76.17278 34077 ft 442 kts 207°
2026-05-04 15:03 37.53153 -76.19742 34081 ft 446 kts 205°
2026-05-04 15:03 37.47257 -76.22164 34079 ft 446 kts 205°
2026-05-04 15:04 37.41366 -76.24613 34079 ft 446 kts 205°
2026-05-04 15:04 37.35479 -76.27056 34061 ft 445 kts 205°
2026-05-04 15:05 37.29595 -76.29488 34075 ft 445 kts 205°
2026-05-04 15:05 37.23713 -76.31913 34082 ft 445 kts 205°
2026-05-04 15:06 37.17831 -76.34331 34084 ft 445 kts 205°
2026-05-04 15:07 37.09018 -76.37956 34066 ft 444 kts 205°
2026-05-04 15:07 37.03151 -76.40368 34078 ft 443 kts 205°
2026-05-04 15:08 36.97289 -76.42770 34132 ft 443 kts 205°
2026-05-04 15:08 36.91428 -76.45166 34104 ft 443 kts 205°
2026-05-04 15:09 36.85579 -76.47556 34099 ft 442 kts 205°
2026-05-04 15:09 36.79736 -76.49941 34103 ft 442 kts 205°
2026-05-04 15:10 36.70970 -76.53500 34101 ft 442 kts 205°
2026-05-04 15:11 36.62203 -76.57056 34095 ft 441 kts 205°
2026-05-04 15:11 36.56360 -76.59418 34101 ft 441 kts 205°
2026-05-04 15:12 36.50523 -76.61782 34098 ft 441 kts 205°
2026-05-04 15:12 36.44697 -76.64135 34079 ft 438 kts 205°
2026-05-04 15:13 36.38906 -76.66468 34102 ft 437 kts 205°
2026-05-04 15:13 36.33123 -76.68796 34116 ft 436 kts 205°
2026-05-04 15:14 36.27351 -76.71117 34124 ft 436 kts 205°
2026-05-04 15:14 36.21591 -76.73433 34115 ft 435 kts 206°
2026-05-04 15:15 36.15842 -76.75729 34129 ft 434 kts 206°
2026-05-04 15:15 36.10104 -76.78013 34136 ft 433 kts 206°
2026-05-04 15:16 36.01521 -76.81451 34073 ft 432 kts 207°
2026-05-04 15:17 35.92944 -76.84866 34119 ft 431 kts 207°
2026-05-04 15:17 35.88442 -76.87241 34118 ft 420 kts 216°
2026-05-04 15:17 35.85834 -76.88856 34114 ft 420 kts 216°
2026-05-04 15:18 35.80608 -76.92077 34120 ft 420 kts 216°
2026-05-04 15:19 35.72761 -76.96908 34107 ft 421 kts 216°
2026-05-04 15:19 35.64897 -77.01725 34117 ft 421 kts 216°
2026-05-04 15:20 35.59653 -77.04937 34120 ft 421 kts 216°
2026-05-04 15:20 35.54412 -77.08144 34064 ft 421 kts 216°
2026-05-04 15:21 35.49150 -77.11372 34131 ft 424 kts 216°
2026-05-04 15:22 35.41230 -77.16201 34129 ft 424 kts 216°
2026-05-04 15:22 35.33317 -77.21008 34134 ft 423 kts 216°
2026-05-04 15:23 35.28044 -77.24212 34127 ft 423 kts 216°
2026-05-04 15:23 35.22770 -77.27414 34129 ft 423 kts 216°
2026-05-04 15:24 35.12212 -77.33813 34137 ft 424 kts 216°
2026-05-04 15:25 35.06926 -77.37004 34114 ft 424 kts 215°
2026-05-04 15:26 34.98992 -77.41784 34131 ft 424 kts 215°
2026-05-04 15:26 34.91054 -77.46553 34142 ft 424 kts 215°
2026-05-04 15:27 34.83119 -77.51320 34138 ft 424 kts 214°
2026-05-04 15:28 34.75158 -77.56090 34154 ft 425 kts 214°
2026-05-04 15:29 34.67199 -77.60837 34149 ft 425 kts 214°
2026-05-04 15:30 34.47636 -77.69601 34128 ft 441 kts 200°
2026-05-04 15:31 34.38630 -77.71896 34137 ft 441 kts 200°
2026-05-04 15:32 34.23611 -77.75714 34128 ft 441 kts 200°
2026-05-04 15:34 34.08627 -77.79515 34118 ft 441 kts 199°
2026-05-04 15:34 33.99616 -77.81786 34139 ft 441 kts 199°
2026-05-04 15:35 33.90611 -77.84055 34147 ft 441 kts 200°
2026-05-04 15:36 33.81608 -77.86308 34130 ft 440 kts 199°
2026-05-04 15:36 33.75653 -77.87949 34144 ft 437 kts 202°
2026-05-04 15:37 33.69831 -77.89966 34154 ft 435 kts 204°
2026-05-04 15:37 33.64037 -77.92059 34158 ft 435 kts 204°
2026-05-04 15:38 33.58218 -77.94080 34135 ft 436 kts 203°
2026-05-04 15:38 33.52379 -77.96038 34141 ft 436 kts 202°
2026-05-04 15:39 33.46541 -77.97992 34156 ft 435 kts 203°
2026-05-04 15:40 33.37797 -78.00944 34167 ft 435 kts 203°
2026-05-04 15:40 33.31969 -78.02912 34145 ft 435 kts 203°
2026-05-04 15:41 33.26144 -78.04876 34155 ft 435 kts 203°
2026-05-04 15:41 33.20319 -78.06831 34166 ft 435 kts 202°
2026-05-04 15:42 33.14491 -78.08775 34170 ft 435 kts 202°
2026-05-04 15:42 33.08671 -78.10728 34139 ft 434 kts 202°
2026-05-04 15:43 33.02860 -78.12685 34162 ft 434 kts 202°
2026-05-04 15:43 32.97047 -78.14621 34171 ft 434 kts 202°
2026-05-04 15:44 32.91235 -78.16549 34178 ft 433 kts 202°
2026-05-04 15:44 32.85433 -78.18485 34181 ft 433 kts 202°
2026-05-04 15:45 32.79632 -78.20419 34183 ft 433 kts 202°
2026-05-04 15:45 32.73830 -78.22343 34187 ft 433 kts 202°
2026-05-04 15:46 32.68026 -78.24265 34181 ft 433 kts 202°
2026-05-04 15:46 32.62227 -78.26187 34181 ft 433 kts 202°
2026-05-04 15:47 32.56432 -78.28107 34165 ft 432 kts 202°
2026-05-04 15:47 32.50643 -78.30021 34175 ft 432 kts 202°
2026-05-04 15:48 32.44860 -78.31929 34180 ft 431 kts 202°
2026-05-04 15:48 32.36185 -78.34785 34184 ft 431 kts 202°
2026-05-04 15:49 32.30406 -78.36685 34166 ft 431 kts 202°
2026-05-04 15:49 32.24630 -78.38582 34175 ft 431 kts 202°
2026-05-04 15:50 32.18857 -78.40476 34180 ft 431 kts 202°
2026-05-04 15:50 32.13082 -78.42363 34180 ft 430 kts 202°
2026-05-04 15:51 32.07315 -78.44254 34146 ft 430 kts 202°
2026-05-04 15:51 32.01548 -78.46147 34159 ft 430 kts 202°
2026-05-04 15:52 31.95782 -78.48029 34164 ft 430 kts 202°
2026-05-04 15:52 31.90050 -78.49895 34170 ft 430 kts 202°
2026-05-04 15:53 31.84279 -78.51765 34177 ft 430 kts 202°
2026-05-04 15:53 31.78468 -78.53648 34160 ft 430 kts 201°
2026-05-04 15:54 31.72739 -78.55512 34167 ft 430 kts 202°
2026-05-04 15:54 31.66970 -78.57391 34174 ft 430 kts 201°
2026-05-04 15:55 31.61199 -78.59257 34179 ft 430 kts 201°
2026-05-04 15:55 31.55429 -78.61120 34143 ft 430 kts 201°
2026-05-04 15:56 31.49675 -78.63026 34153 ft 429 kts 202°
2026-05-04 15:56 31.43950 -78.65016 34163 ft 429 kts 203°
2026-05-04 15:57 31.38226 -78.67000 34171 ft 429 kts 202°
2026-05-04 15:57 31.32494 -78.68961 34176 ft 429 kts 202°
2026-05-04 15:58 31.26752 -78.70912 34148 ft 430 kts 202°
2026-05-04 15:58 31.21009 -78.72871 34158 ft 430 kts 203°
2026-05-04 15:59 31.15265 -78.74833 34169 ft 430 kts 203°
2026-05-04 15:59 31.09517 -78.76794 34165 ft 430 kts 202°
2026-05-04 16:00 31.04695 -78.78426 34173 ft 431 kts 202°
2026-05-04 16:00 30.98944 -78.80379 34148 ft 431 kts 203°
2026-05-04 16:01 30.93184 -78.82330 34156 ft 431 kts 203°
2026-05-04 16:01 30.87415 -78.84274 34158 ft 432 kts 203°
2026-05-04 16:02 30.81648 -78.86230 34162 ft 432 kts 203°
2026-05-04 16:03 30.72986 -78.89156 34145 ft 434 kts 204°
2026-05-04 16:03 30.67189 -78.91111 34156 ft 434 kts 204°
2026-05-04 16:04 30.61382 -78.93062 34160 ft 434 kts 204°
2026-05-04 16:04 30.52670 -78.95991 34164 ft 435 kts 204°
2026-05-04 16:05 30.46862 -78.97941 34135 ft 435 kts 204°
2026-05-04 16:06 30.38237 -79.01033 34151 ft 432 kts 208°
2026-05-04 16:07 30.27082 -79.06114 34155 ft 431 kts 210°
2026-05-04 16:08 30.15813 -79.11040 34153 ft 434 kts 208°
2026-05-04 16:09 30.01670 -79.17162 34155 ft 434 kts 209°
2026-05-04 16:10 29.90344 -79.22072 34128 ft 436 kts 210°
2026-05-04 16:11 29.78956 -79.26994 34142 ft 438 kts 210°
2026-05-04 16:12 29.61829 -79.34374 34151 ft 439 kts 210°
2026-05-04 16:13 29.50373 -79.39291 34156 ft 439 kts 210°
2026-05-04 16:14 29.38922 -79.44199 34121 ft 439 kts 210°
2026-05-04 16:16 29.24628 -79.50308 34148 ft 438 kts 210°
2026-05-04 16:17 29.10354 -79.56416 34110 ft 435 kts 212°
2026-05-04 16:18 29.02647 -79.61473 34133 ft 424 kts 220°
2026-05-04 16:18 29.00126 -79.63227 34138 ft 424 kts 220°
2026-05-04 16:19 28.87498 -79.71949 34143 ft 424 kts 219°
2026-05-04 16:20 28.74873 -79.80644 34131 ft 424 kts 219°
2026-05-04 16:22 28.62267 -79.89322 34136 ft 423 kts 219°
2026-05-04 16:23 28.47117 -79.99688 34113 ft 424 kts 219°
2026-05-04 16:25 28.31960 -80.10033 34118 ft 424 kts 219°
2026-05-04 16:26 28.14233 -80.22094 34091 ft 425 kts 219°
2026-05-04 16:28 28.01531 -80.30702 34065 ft 426 kts 219°
2026-05-04 16:29 27.83689 -80.42748 34117 ft 427 kts 219°
2026-05-04 16:31 27.70328 -80.50207 34088 ft 449 kts 198°
2026-05-04 16:32 27.51362 -80.51790 34104 ft 456 kts 193°
2026-05-04 16:33 27.38710 -80.52800 34089 ft 456 kts 193°
2026-05-04 16:34 27.29220 -80.53549 34090 ft 456 kts 192°
2026-05-04 16:35 27.10241 -80.55033 34063 ft 456 kts 192°
2026-05-04 16:36 27.00753 -80.55778 34071 ft 456 kts 192°
2026-05-04 16:37 26.91261 -80.56520 34073 ft 456 kts 192°
2026-05-04 16:38 26.78613 -80.57519 34052 ft 455 kts 192°
2026-05-04 16:39 26.62824 -80.58743 34070 ft 455 kts 192°
2026-05-04 16:40 26.51262 -80.59648 33604 ft 455 kts 192°
2026-05-04 16:41 26.44941 -80.60141 33087 ft 456 kts 192°
2026-05-04 16:41 26.35410 -80.60878 32325 ft 459 kts 192°
2026-05-04 16:42 26.25825 -80.61615 31591 ft 462 kts 192°
2026-05-04 16:43 26.19398 -80.62108 31082 ft 464 kts 191°
2026-05-04 16:43 26.12944 -80.62585 30609 ft 466 kts 191°
2026-05-04 16:43 26.09708 -80.62822 30375 ft 467 kts 191°
2026-05-04 16:44 25.96707 -80.63799 29333 ft 467 kts 191°
2026-05-04 16:45 25.90241 -80.64275 28761 ft 464 kts 191°
2026-05-04 16:46 25.80644 -80.64982 27988 ft 458 kts 191°
2026-05-04 16:46 25.74318 -80.65452 27483 ft 454 kts 191°
2026-05-04 16:47 25.68040 -80.65924 26988 ft 450 kts 190°
2026-05-04 16:47 25.61858 -80.66379 26487 ft 446 kts 190°
2026-05-04 16:48 25.52615 -80.67066 25770 ft 442 kts 190°
2026-05-04 16:48 25.49557 -80.67294 25536 ft 440 kts 190°
2026-05-04 16:49 25.43480 -80.67750 25066 ft 436 kts 189°
2026-05-04 16:49 25.37519 -80.68428 24234 ft 423 kts 198°
2026-05-04 16:50 25.31873 -80.69999 22967 ft 415 kts 199°
2026-05-04 16:50 25.26338 -80.71561 21873 ft 406 kts 199°
2026-05-04 16:51 25.20919 -80.73084 20869 ft 398 kts 199°
2026-05-04 16:51 25.18245 -80.73830 20396 ft 394 kts 199°
2026-05-04 16:51 25.12974 -80.75304 19473 ft 387 kts 199°
2026-05-04 16:52 25.07801 -80.76749 18564 ft 380 kts 199°
2026-05-04 16:52 25.05243 -80.77462 18066 ft 378 kts 199°
2026-05-04 16:53 25.00383 -80.79366 17047 ft 364 kts 213°
2026-05-04 16:53 24.94648 -80.84494 15642 ft 350 kts 225°
2026-05-04 16:54 24.92848 -80.86282 15163 ft 348 kts 225°
2026-05-04 16:55 24.85732 -80.93328 13190 ft 340 kts 225°
2026-05-04 16:55 24.82219 -80.96798 12267 ft 337 kts 225°
2026-05-04 16:56 24.78760 -81.00228 11286 ft 332 kts 225°
2026-05-04 16:56 24.74736 -81.06012 10520 ft 300 kts 240°
2026-05-04 16:57 24.73675 -81.07904 10387 ft 289 kts 240°
2026-05-04 16:57 24.71609 -81.11584 10117 ft 277 kts 240°
2026-05-04 16:58 24.68596 -81.16965 9431 ft 275 kts 240°
2026-05-04 16:58 24.67591 -81.18757 9052 ft 276 kts 240°
2026-05-04 16:59 24.65593 -81.22328 8298 ft 273 kts 240°
2026-05-04 17:00 24.60828 -81.28809 7564 ft 272 kts 231°
2026-05-04 17:00 24.57126 -81.33514 7172 ft 270 kts 231°
2026-05-04 17:01 24.55050 -81.36910 6899 ft 268 kts 244°
2026-05-04 17:01 24.53335 -81.40558 6638 ft 269 kts 243°
2026-05-04 17:02 24.51614 -81.44199 6372 ft 269 kts 243°
2026-05-04 17:02 24.49892 -81.47830 6110 ft 268 kts 243°
2026-05-04 17:03 24.49030 -81.49643 5991 ft 268 kts 243°
2026-05-04 17:03 24.48169 -81.51452 5988 ft 267 kts 243°
2026-05-04 17:03 24.46638 -81.55160 5989 ft 267 kts 257°
2026-05-04 17:04 24.46449 -81.59225 6000 ft 268 kts 269°
2026-05-04 17:04 24.46414 -81.63314 5998 ft 267 kts 269°
2026-05-04 17:05 24.46379 -81.67184 5997 ft 236 kts 268°
2026-05-04 17:05 24.46345 -81.70816 5025 ft 248 kts 268°
2026-05-04 17:06 24.46305 -81.74476 4418 ft 230 kts 269°
2026-05-04 17:06 24.46287 -81.76203 4292 ft 224 kts 269°
2026-05-04 17:07 24.46251 -81.79623 4068 ft 222 kts 269°
2026-05-04 17:07 24.46239 -81.80742 3994 ft 221 kts 270°
2026-05-04 17:07 24.46217 -81.82990 3852 ft 220 kts 270°
2026-05-04 17:07 24.46200 -81.84676 3740 ft 221 kts 270°
2026-05-04 17:08 24.46182 -81.86361 3638 ft 221 kts 270°
2026-05-04 17:08 24.46144 -81.89738 3415 ft 221 kts 271°
2026-05-04 17:08 24.46128 -81.91449 3306 ft 227 kts 271°
2026-05-04 17:09 24.46112 -81.93152 3191 ft 228 kts 270°
2026-05-04 17:09 24.46227 -81.94895 3071 ft 225 kts 290°
2026-05-04 17:09 24.47140 -81.96246 2963 ft 222 kts 327°
2026-05-04 17:10 24.50122 -81.96677 2707 ft 219 kts 359°
2026-05-04 17:10 24.54540 -81.96177 2312 ft 211 kts 37°
2026-05-04 17:11 24.55341 -81.94884 2191 ft 207 kts 75°
2026-05-04 17:11 24.55409 -81.93328 2101 ft 203 kts 89°
2026-05-04 17:11 24.55422 -81.90315 1895 ft 188 kts 86°
2026-05-04 17:12 24.55445 -81.88932 1767 ft 174 kts 87°
2026-05-04 17:12 24.55480 -81.86535 1613 ft 149 kts 88°
2026-05-04 17:13 24.55525 -81.83203 1196 ft 144 kts 86°
2026-05-04 17:14 24.55563 -81.79906 628 ft 142 kts 85°
2026-05-04 17:14 24.55573 -81.78802 424 ft 146 kts 85°
2026-05-04 17:14 24.55607 -81.76623 36 ft 140 kts 87°
2026-05-04 17:15 24.55616 -81.75729 19 ft 80 kts 89°
2026-05-04 17:15 24.55617 -81.75428 21 ft 8 kts 89°
2026-05-04 17:16 24.55589 -81.75258 19 ft 11 kts 158°
2026-05-04 17:16 24.55532 -81.75366 21 ft 4 kts 269°
2026-05-04 17:17 24.55532 -81.75398 21 ft 4 kts 269°
2026-05-04 17:17 24.55515 -81.75514 20 ft 3 kts 206°
2026-05-04 17:18 24.55495 -81.75530 19 ft 4 kts 224°
2026-05-04 17:18 24.55477 -81.75552 19 ft 0 kts 230°
2026-05-04 17:19 24.55470 -81.75561 20 ft 0 kts 229°